Theta_e
309 302 298 299 307 308 312 313 307 303 307 307 307 315 319 324 331 329 329 337 344 354 353 352 352 351 350 349 347 344 342 341
304 301 305 305 309 310 309 310 305 305 304 309 314 315 320 324 331 330 331 337 345 353 353 353 353 352 351 348 347 345 345 344
301 303 306 309 311 309 306 305 305 306 305 306 313 319 320 329 330 328 329 334 341 353 353 353 353 352 351 350 350 348 346 345
297 302 305 307 310 307 306 306 304 304 305 306 312 317 322 329 327 328 328 332 339 351 353 353 353 353 352 351 350 348 348 347
300 302 304 306 309 305 304 306 306 306 303 306 310 316 325 329 327 327 329 332 337 344 350 353 353 352 352 351 351 350 350 348
301 301 301 308 307 306 306 307 310 311 304 304 309 315 318 323 325 327 330 331 335 341 345 345 347 353 352 352 351 350 347 345
299 300 302 305 304 309 312 308 307 310 309 312 314 314 316 317 320 323 330 331 333 336 338 338 339 344 351 350 348 346 342 341
305 305 304 305 306 309 308 310 309 310 311 313 313 312 313 315 318 318 323 324 329 330 332 332 336 333 334 334 332 330 330 328
307 309 307 308 308 311 308 307 311 308 311 311 311 310 312 314 317 319 323 323 324 326 327 326 325 324 323 325 324 324 325 326
310 310 308 308 311 310 312 311 315 315 314 311 309 309 311 313 315 313 313 317 318 321 322 321 320 320 320 321 321 321 321 324
311 309 309 311 309 310 310 316 317 315 312 310 310 311 312 313 314 312 309 312 316 317 318 318 319 320 319 320 322 321 321 322
307 308 310 309 309 310 313 317 313 310 310 309 310 310 310 310 310 309 310 312 315 318 317 319 320 319 319 320 321 321 321 321
301 303 303 307 302 304 311 312 308 309 309 309 310 311 310 312 312 312 310 314 316 317 320 320 320 320 320 320 321 321 322 323
298 302 303 303 295 304 308 306 306 307 308 308 308 311 312 313 311 310 313 315 318 322 321 320 319 319 320 320 321 322 323 323
293 301 301 300 295 303 305 305 305 307 308 308 308 308 312 311 309 314 316 317 318 320 320 320 318 318 319 321 321 322 323 323
291 297 298 295 296 301 304 303 304 305 306 306 307 308 308 309 312 316 317 318 319 319 319 318 317 318 319 320 321 322 324 325
293 299 297 295 296 299 303 302 301 303 304 305 305 308 309 310 314 316 317 317 317 317 316 317 316 316 318 319 320 322 324 325
295 300 297 296 295 299 301 301 301 304 304 305 305 309 309 310 313 316 316 316 315 316 316 317 316 319 320 320 321 322 323 324
293 298 296 294 293 296 302 302 303 304 305 305 305 307 308 310 312 314 315 315 316 316 317 317 319 319 319 319 320 320 321 322
296 292 286 294 284 294 297 299 301 303 302 303 305 309 308 310 311 314 314 315 316 316 317 318 320 318 318 317 315 318 320 321
Wind_Speed
4 2 5 5 5 4 8 6 6 3 3 1 4 2 5 6 12 9 13 13 16 24 22 20 19 17 17 16 15 16 15 14
3 5 7 5 7 2 9 8 5 4 4 2 7 6 8 8 12 11 11 12 16 22 21 20 19 18 18 17 16 16 15 15
1 5 6 7 7 4 7 5 5 5 6 4 3 3 6 10 12 13 8 9 12 20 21 20 20 19 18 17 17 17 16 15
4 5 5 7 8 2 4 4 3 2 1 6 3 5 7 8 10 8 12 8 8 19 20 20 19 18 17 17 16 16 14 13
4 5 6 6 4 4 1 4 5 1 3 6 5 9 8 8 7 7 7 8 9 12 16 19 18 18 17 16 15 14 13 11
5 3 9 6 3 4 2 5 0 4 4 9 5 7 8 5 5 6 7 8 10 8 10 9 9 17 16 15 14 12 12 12
8 9 10 3 1 1 3 4 3 5 5 6 3 7 7 4 2 3 4 7 7 8 8 7 6 7 12 15 13 12 11 12
8 7 7 1 1 5 3 7 9 8 8 3 6 6 9 9 12 8 10 8 8 7 6 6 5 5 4 4 2 3 4 6
9 8 1 6 9 2 4 10 12 8 12 3 6 8 12 14 12 19 14 7 9 7 7 6 5 4 2 2 2 3 5 5
17 9 4 8 5 12 13 18 17 15 9 5 9 13 16 15 14 10 9 9 8 8 7 6 3 4 4 3 3 3 4 5
13 10 9 8 12 15 18 25 14 11 9 12 12 17 16 16 10 8 9 7 8 7 7 6 6 4 3 4 4 4 4 5
6 12 14 17 14 7 20 22 15 11 15 11 12 17 12 9 13 13 8 9 9 10 8 7 6 5 4 4 4 4 4 5
8 9 7 12 13 18 26 13 11 16 15 13 13 10 17 23 22 12 8 12 12 10 8 8 7 6 4 4 4 4 5 6
5 6 7 11 13 20 16 11 16 17 14 10 13 15 20 20 10 9 13 14 11 9 8 7 6 5 4 4 4 4 4 4
6 8 5 9 9 13 7 5 12 15 15 13 14 11 16 11 8 12 14 15 13 8 9 8 6 4 5 5 4 4 4 4
9 4 6 10 15 19 20 10 17 15 13 11 12 18 8 10 11 13 13 13 11 7 7 6 3 3 2 3 4 4 4 3
1 3 5 9 8 16 18 9 12 13 14 15 10 4 4 8 12 14 13 13 11 10 7 5 3 2 2 3 2 2 3 5
7 5 6 11 14 14 17 14 9 15 16 12 6 4 4 7 12 16 17 15 11 9 8 5 3 2 2 1 3 3 3 3
16 2 5 8 14 14 18 9 7 10 12 9 7 6 6 8 9 8 13 11 10 9 8 5 5 2 2 1 2 2 2 2
11 4 6 5 8 12 11 14 8 11 8 9 4 5 7 8 9 12 10 7 9 8 8 5 5 2 2 2 1 2 1 1
Wind_Direction
110 145 204 218 224 250 303 270 222 229 198 159 235 228 198 220 153 144 164 170 182 187 189 192 193 189 192 196 199 203 212 220
106 231 262 227 269 308 321 323 181 168 248 255 216 168 194 148 152 156 173 177 186 185 188 193 193 194 195 198 204 210 217 226
271 248 257 251 254 281 292 281 265 171 239 239 256 233 154 151 160 170 164 176 178 187 188 192 195 198 199 202 205 211 217 231
238 229 254 274 248 255 231 252 300 256 110 258 324 165 188 161 172 169 166 167 168 187 193 194 197 199 202 205 209 213 222 232
255 254 273 234 182 200 314 328 313 146 207 262 263 214 175 168 146 154 156 159 175 185 195 198 199 200 202 206 210 213 224 231
237 222 265 213 201 136 132 282 139 160 258 267 256 167 126 118 146 160 163 183 185 184 184 194 203 204 201 206 213 216 220 222
233 171 243 185 346 228 158 244 285 222 225 245 80 117 105 119 187 195 207 198 182 185 176 165 179 205 206 211 213 215 219 222
209 188 242 215 145 349 312 319 271 278 263 304 144 179 173 189 203 205 211 202 189 172 176 158 166 183 184 212 202 196 204 214
268 234 233 285 297 183 291 289 272 266 292 243 188 203 204 208 203 207 210 194 180 168 161 170 170 159 179 190 199 212 224 221
253 261 277 260 315 294 283 259 268 279 261 226 197 210 212 214 208 198 197 188 169 162 157 176 157 182 180 182 202 220 230 222
252 276 243 267 256 263 288 279 280 270 268 234 215 216 218 227 223 197 204 171 162 148 160 162 176 183 175 200 208 217 219 211
268 270 275 269 276 275 266 270 279 277 277 247 223 221 215 212 222 207 173 152 152 166 160 155 175 183 199 206 214 214 224 218
230 240 249 275 268 249 262 282 266 270 265 267 231 218 215 221 217 197 169 143 161 160 160 166 181 192 197 219 200 219 226 221
232 216 245 167 261 267 273 259 264 269 266 255 251 219 225 228 216 151 138 153 157 163 165 169 182 191 207 225 220 230 226 219
297 221 236 177 273 262 283 277 272 274 274 269 267 248 234 215 154 148 146 149 158 156 164 176 190 203 220 240 237 236 227 221
225 241 236 261 265 278 276 260 256 264 265 262 259 251 235 160 146 144 141 146 146 149 161 170 177 208 239 243 241 234 237 231
271 218 246 247 268 269 275 250 261 270 267 264 258 256 184 152 142 136 145 144 148 148 170 150 170 190 226 233 269 277 266 257
266 206 235 270 272 266 282 267 239 264 278 272 242 210 141 139 153 162 153 147 143 150 160 179 181 193 178 194 261 263 281 291
239 348 268 314 289 288 281 268 264 254 249 263 255 217 141 148 146 131 135 143 149 151 163 177 181 117 61 14 319 334 332 359
253 217 240 128 285 292 300 297 261 288 289 271 189 134 154 133 121 135 142 140 134 150 163 172 157 129 144 167 239 248 270 286